Worland, WY

5:08 PM MST on February 20, 2018 (GMT -0700)
Worland Municipal

Weather History for KWRL - April, 2014

Change the Weather History Date:

Sunday, April 27, 2014

  Actual Average Record
Temperature  
Mean Temperature 47 °F 49 °F  
Max Temperature 55 °F 64 °F 85 °F (1992)
Min Temperature 38 °F 35 °F 23 °F (1994)
Degree Days  
Heating Degree Days 18 16  
Month to date heating degree days 518 535  
Since 1 July heating degree days 7838 7421  
Cooling Degree Days 0 0  
Month to date cooling degree days 0 0  
Year to date cooling degree days 0 0  
Moisture  
Dew Point 32 °F    
Average Humidity 60    
Maximum Humidity 85    
Minimum Humidity 35    
Precipitation  
Precipitation 0.01 in 0.04 in 0.75 in (1978)
Month to date precipitation 0.28 0.73  
Year to date precipitation 1.06 1.61  
Sea Level Pressure  
Sea Level Pressure 29.56 in    
Wind  
Wind Speed 15 mph (NNW)    
Max Wind Speed 28 mph    
Max Gust Speed 35 mph    
Visibility 10 miles    
Events Rain    
T = Trace of Precipitation, MM = Missing Value Source: NWS Daily Summary

Daily Weather History Graph

Daily Weather History Graph

Search for Another Location

Airport or City:

Trip Planner

Search our weather history database for the weather conditions in past years. The results will help you decide how hot, cold, wet, or windy it might be!

Date:

Astronomy

Apr. 27, 2014 Rise Set
Actual Time 6:09 AM MDT 8:10 PM MDT
Civil Twilight 5:38 AM MDT 8:41 PM MDT
Nautical Twilight 4:59 AM MDT 9:20 PM MDT
Astronomical Twilight 4:17 AM MDT 10:02 PM MDT
Moon 5:15 AM MDT (4/27) 6:44 PM MDT (4/27)
Length of Visible Light 15h 03m
Length of Day
14h 01m
Waning Crescent, 3% of the Moon is Illuminated
Apr 27
Waning Crescent
Apr 29
New
May 6
First Quarter
May 14
Full
May 21
Last Quarter

Hourly Weather History & Observations

Time (MDT) Temp. Windchill Dew Point Humidity Pressure Visibility Wind Dir Wind Speed Gust Speed Precip Events Conditions
12:12 AM 43.0 °F 36.4 °F 37.0 °F 80% 29.48 in 10.0 mi NNW 12.7 mph - N/A   Overcast
12:28 AM 42.1 °F 34.9 °F 36.0 °F 79% 29.49 in 10.0 mi NW 13.8 mph - N/A   Overcast
12:53 AM 41.0 °F 31.9 °F 36.0 °F 82% 29.44 in 10.0 mi NW 19.6 mph - 0.00 in   Overcast
1:17 AM 39.9 °F 31.1 °F 36.0 °F 86% 29.49 in 10.0 mi NNW 17.3 mph - 0.00 in   Overcast
1:48 AM 39.2 °F 32.0 °F 35.6 °F 87% 29.49 in 10.0 mi NNW 11.5 mph - 0.00 in   Overcast
1:53 AM 39.0 °F 29.9 °F 35.1 °F 86% 29.45 in 10.0 mi NNW 17.3 mph 24.2 mph 0.00 in   Overcast
2:04 AM 39.0 °F 29.9 °F 35.1 °F 86% 29.49 in 10.0 mi NNW 17.3 mph - N/A   Overcast
2:53 AM 39.9 °F 31.8 °F 35.1 °F 83% 29.46 in 10.0 mi NNW 15.0 mph - 0.00 in   Overcast
3:01 AM 39.9 °F 31.4 °F 35.1 °F 83% 29.51 in 10.0 mi NNW 16.1 mph - N/A   Overcast
3:53 AM 39.0 °F 29.6 °F 35.1 °F 86% 29.51 in 10.0 mi NW 18.4 mph 26.5 mph 0.00 in Rain Light Rain
4:40 AM 39.0 °F 29.9 °F 34.0 °F 82% 29.53 in 10.0 mi NNW 17.3 mph 23.0 mph 0.01 in   Overcast
4:53 AM 39.0 °F 30.6 °F 35.1 °F 86% 29.51 in 10.0 mi NNW 15.0 mph - 0.01 in Rain Light Rain
5:29 AM 39.0 °F 31.0 °F 34.0 °F 82% 29.55 in 10.0 mi NNW 13.8 mph - 0.00 in   Overcast
6:53 AM 39.0 °F 29.9 °F 34.0 °F 82% 29.56 in 10.0 mi NNW 17.3 mph 23.0 mph N/A   Overcast
7:53 AM 39.9 °F 30.8 °F 34.0 °F 79% 29.56 in 10.0 mi NNW 18.4 mph 27.6 mph N/A   Overcast
8:53 AM 41.0 °F 31.9 °F 33.1 °F 73% 29.59 in 10.0 mi NNW 19.6 mph 26.5 mph N/A   Overcast
9:53 AM 43.0 °F 35.1 °F 34.0 °F 71% 29.59 in 10.0 mi NNW 17.3 mph 25.3 mph N/A   Overcast
10:53 AM 48.9 °F - 33.1 °F 54% 29.58 in 10.0 mi NNW 23.0 mph 34.5 mph N/A   Mostly Cloudy
11:53 AM 50.0 °F - 32.0 °F 50% 29.59 in 10.0 mi NNW 19.6 mph 32.2 mph N/A   Scattered Clouds
12:53 PM 52.0 °F - 30.0 °F 43% 29.58 in 10.0 mi North 19.6 mph 28.8 mph N/A   Clear
2:53 PM 52.0 °F - 27.0 °F 38% 29.59 in 10.0 mi North 19.6 mph - N/A   Mostly Cloudy
3:53 PM 53.1 °F - 27.0 °F 37% 29.58 in 10.0 mi North 18.4 mph 21.9 mph N/A   Scattered Clouds
4:53 PM 53.1 °F - 27.0 °F 37% 29.60 in 10.0 mi NNW 23.0 mph 28.8 mph N/A   Overcast
5:53 PM 51.1 °F - 28.9 °F 43% 29.63 in 10.0 mi NNW 25.3 mph 35.7 mph N/A   Mostly Cloudy
6:53 PM 51.1 °F - 28.9 °F 43% 29.65 in 10.0 mi North 10.4 mph - N/A   Mostly Cloudy
7:53 PM 51.1 °F - 24.1 °F 35% 29.66 in 10.0 mi North 12.7 mph - N/A   Clear
8:53 PM 46.9 °F - 25.0 °F 42% 29.69 in 10.0 mi North 6.9 mph - N/A   Clear
9:53 PM 43.0 °F 39.5 °F 26.1 °F 51% 29.70 in 10.0 mi NNW 5.8 mph - N/A   Clear
11:53 PM 39.9 °F 37.8 °F 28.0 °F 63% 29.68 in 10.0 mi WSW 3.5 mph - N/A   Clear